DW8097 Weather Reports


time (UTC)temp
C
wind
direction
speed
KPH
gust
KPH
rain 1hr
cm
rain 24hr
cm
rain mn
cm
humidity
%
barometer
mb
20260901030053 23 255 0.0 0.0 0.00 0.00 0.00 90 1009.7
20260901024543 23 255 0.0 0.0 0.00 0.00 0.00 90 1009.4
20260901023039 23 254 0.0 0.0 0.00 0.00 0.00 90 1009.3
20260901021534 24 254 0.0 0.0 0.00 0.00 0.00 88 1009.2
20260901020029 25 254 0.0 0.0 0.00 0.00 0.00 88 1009.2
20260901014522 25 254 0.0 0.0 0.00 0.00 0.00 86 1009.1
20260901013020 26 316 0.0 0.0 0.00 0.00 0.00 85 1008.9
20260901011512 26 340 0.0 0.0 0.00 0.00 0.00 82 1008.7
20260901010011 27 334 0.0 0.0 0.00 0.00 0.00 82 1008.5
20260901004503 27 257 0.0 0.0 0.00 0.00 0.00 77 1008.4
20260901003055 28 229 0.0 0.0 0.00 0.00 0.00 76 1008.3
20260901001551 29 231 0.0 0.0 0.00 0.00 0.00 73 1008.3
20260901000049 30 271 0.0 0.0 0.00 0.00 0.00 72 1008.2
20260831234548 30 200 0.0 1.6 0.00 0.00 0.00 69 1008.3
20260831233017 31 242 0.0 4.8 0.00 0.00 0.00 67 1008.0
20260831231520 31 268 0.0 4.8 0.00 0.00 0.00 66 1008.1
20260831230016 32 157 0.0 8.0 0.00 0.00 0.00 61 1007.9
20260831224514 32 125 0.0 8.0 0.00 0.00 0.00 63 1007.9
20260831223013 32 93 0.0 8.0 0.00 0.00 0.00 62 1007.9
20260831221526 31 130 0.0 11.3 0.00 0.00 0.00 64 1007.8
20260831220010 33 111 1.6 8.0 0.00 0.00 0.00 60 1007.8
20260831214527 33 92 0.0 4.8 0.00 0.00 0.00 61 1007.7
20260831213007 33 116 0.0 8.0 0.00 0.00 0.00 60 1007.7
20260831211507 33 140 0.0 6.4 0.00 0.00 0.00 59 1007.5
20260831210005 33 205 0.0 9.7 0.00 0.00 0.00 59 1007.5
20260831204603 32 132 0.0 11.3 0.00 0.00 0.00 62 1007.5
20260831203058 32 71 0.0 3.2 0.00 0.00 0.00 62 1007.5
20260831201556 32 123 0.0 0.0 0.00 0.00 0.00 61 1007.6
20260831200052 32 159 0.0 8.0 0.00 0.00 0.00 65 1007.6
20260831194549 31 355 0.0 0.0 0.00 0.00 0.00 64 1007.5
20260831193045 30 111 0.0 0.0 0.00 0.00 0.00 65 1007.7
20260831191543 30 149 0.0 0.0 0.00 0.00 0.00 68 1007.7
20260831190100 30 97 0.0 0.0 0.00 0.00 0.00 67 1007.8
20260831184543 31 99 0.0 1.6 0.00 0.00 0.00 67 1007.9
20260831183049 30 138 0.0 0.0 0.00 0.00 0.00 67 1007.8
20260831181536 30 88 0.0 0.0 0.00 0.00 0.00 68 1007.8
20260831180002 29 205 0.0 0.0 0.00 0.00 0.00 68 1008.0
20260831174608 29 261 0.0 0.0 0.00 0.00 0.00 71 1007.9
20260831173058 28 271 0.0 6.4 0.00 0.00 0.00 72 1008.1
20260831171555 29 271 0.0 6.4 0.00 0.00 0.00 71 1008.2
20260831170052 29 355 0.0 0.0 0.00 0.00 0.00 70 1008.2
20260831164602 29 81 0.0 0.0 0.00 0.00 0.00 70 1008.1
20260831163046 29 107 0.0 0.0 0.00 0.00 0.00 69 1008.0
20260831161540 28 106 0.0 0.0 0.00 0.00 0.00 70 1007.8
20260831160043 29 122 0.0 0.0 0.00 0.00 0.00 68 1007.7
20260831154539 28 97 0.0 1.6 0.00 0.00 0.00 70 1007.5
20260831153033 28 346 0.0 3.2 0.00 0.00 0.00 73 1007.5
20260831151537 27 273 0.0 3.2 0.00 0.00 0.00 74 1007.4
20260831150032 27 252 0.0 4.8 0.00 0.00 0.00 74 1007.1
20260831144531 27 296 0.0 1.6 0.00 0.00 0.00 77 1007.2
20260831143030 26 265 0.0 1.6 0.00 0.00 0.00 78 1007.0
20260831141529 25 313 0.0 1.6 0.00 0.00 0.00 81 1006.8
20260831140037 25 214 0.0 0.0 0.00 0.00 0.00 79 1006.8
20260831134529 25 172 0.0 0.0 0.00 0.00 0.00 80 1006.6
20260831133025 23 171 0.0 0.0 0.00 0.00 0.00 85 1006.7
20260831131536 23 161 0.0 0.0 0.00 0.00 0.00 86 1006.6
20260831130034 22 196 0.0 0.0 0.00 0.00 0.00 86 1006.6
20260831124526 22 217 0.0 0.0 0.00 0.00 0.00 89 1006.5
20260831123020 21 217 0.0 0.0 0.00 0.00 0.00 90 1006.3
20260831121520 20 217 0.0 0.0 0.00 0.00 0.00 91 1006.1
20260831120025 20 250 0.0 0.0 0.00 0.00 0.00 90 1006.0
20260831114519 20 250 0.0 0.0 0.00 0.00 0.00 90 1005.7
20260831113018 20 250 0.0 0.0 0.00 0.00 0.00 90 1005.7
20260831111516 21 259 0.0 0.0 0.00 0.00 0.00 89 1005.8
20260831110012 21 150 0.0 0.0 0.00 0.00 0.00 89 1005.5
20260831104512 21 214 0.0 0.0 0.00 0.00 0.00 90 1005.7
20260831103011 21 122 0.0 0.0 0.00 0.00 0.00 89 1005.6
20260831101511 21 186 0.0 6.4 0.00 0.00 0.00 89 1005.7
20260831100008 21 223 0.0 0.0 0.00 0.00 0.00 90 1005.7
20260831094507 21 86 0.0 0.0 0.00 0.00 0.00 88 1005.6
20260831093007 21 278 0.0 0.0 0.00 0.00 0.00 88 1005.7
20260831091505 21 241 0.0 0.0 0.00 0.00 0.00 89 1005.7
20260831090004 21 146 0.0 0.0 0.00 0.00 0.00 89 1005.8
20260831084508 21 200 0.0 0.0 0.00 0.00 0.00 88 1005.8
20260831083003 21 185 0.0 0.0 0.00 0.00 0.00 88 1005.7
20260831081533 21 210 0.0 0.0 0.00 0.00 0.00 87 1005.6
20260831080039 21 188 0.0 0.0 0.00 0.00 0.00 86 1005.7
20260831074502 21 161 0.0 0.0 0.00 0.00 0.00 87 1005.7
20260831073002 21 171 0.0 0.0 0.00 0.00 0.00 87 1005.9
20260831071534 21 171 0.0 0.0 0.00 0.00 0.00 86 1006.0
20260831070027 21 166 0.0 0.0 0.00 0.00 0.00 86 1006.2
20260831064525 21 206 0.0 0.0 0.00 0.00 0.00 86 1006.3
20260831063025 21 234 0.0 0.0 0.00 0.00 0.00 86 1006.4
20260831061529 21 232 0.0 0.0 0.00 0.00 0.00 85 1006.6
20260831060022 21 180 0.0 0.0 0.00 0.00 0.00 85 1006.7
20260831054519 21 234 0.0 0.0 0.00 0.00 0.00 85 1006.9
20260831053027 21 264 0.0 0.0 0.00 0.00 0.00 84 1007.0
20260831051517 21 175 0.0 0.0 0.00 0.00 0.00 84 1007.0
20260831050025 22 219 0.0 0.0 0.00 0.00 0.00 84 1007.1
20260831044511 22 169 0.0 0.0 0.00 0.00 0.00 83 1007.3
20260831043009 22 188 0.0 0.0 0.00 0.00 0.00 82 1007.3
20260831041508 22 200 0.0 0.0 0.00 0.00 0.00 82 1007.2
20260831040005 22 193 0.0 4.8 0.00 0.00 0.00 81 1007.5
20260831034600 22 189 0.0 1.6 0.00 0.00 0.00 81 1007.1
20260831033058 22 229 0.0 11.3 0.00 0.00 0.00 81 1007.3
20260831031556 22 134 0.0 1.6 0.00 0.00 0.00 81 1007.3